TIME,DELAY(SENSOR),PRES,T(CTD),SAL,OXYGEN,RAWTEMP,T(OPTODE),TCPHASE,FLUOR,BETA(BETA700),BETA(BETA412),BETA(BETA440),CDOM,C(CSC),ED(ED412.40),ED(ED444.00),ED(ED489.70),ED(ED554.30),LU(LU411.80),LU(LU443.40),LU(LU489.60),LU(LU554.10),COMP,TILTX,TILTX(TILTY),CHECK
1355174520,5809,496.8800048828125000,6.3386998176574710,34.1400985717773440,72.3523483276367200,608.3627929687500000,6.3137841224670410,49.9457702636718750,52,106,87,81,80,15162,2147750144,2147421220,2148006893,2147874157,2147637302,2147073865,2148248201,2147202340,1684,4,13,42921
1355174630,5809,486.2500000000000000,6.4361000061035160,34.1366004943847660,75.8011474609375000,605.2346801757812000,6.4150347709655760,49.4822502136230500,52,104,89,80,81,15162,2147747474,2147422180,2148005458,2147874761,2147635044,2147073426,2148245376,2147200731,2417,4,13,58557
1355174753,5810,475.3299865722656000,6.6229000091552730,34.1342010498046900,78.6163635253906200,598.7727050781250000,6.6239070892333980,49.0567893981933600,51,106,90,80,80,15161,2147744585,2147423597,2148007195,2147874752,2147634706,2147067629,2148246080,2147198354,2608,4,13,37258
1355174896,5809,464.4800109863281000,6.8931999206542970,34.1369018554687500,80.7176971435546900,590.3646240234375000,6.8950881958007810,48.6840286254882800,51,104,89,80,78,15160,2147745472,2147419273,2148006208,2147873188,2147631625,2147079350,2148252342,2147201865,2425,4,13,59913
1355175065,5809,452.4400024414062500,7.0968999862670900,34.1286010742187500,84.4274673461914000,584.4362182617188000,7.0858941078186035,48.1636886596679700,52,105,88,80,79,15161,2147744420,2147419766,2148006838,2147870281,2147627209,2147076544,2148246390,2147199296,2112,4,13,4488
1355175197,5809,442.0100097656250000,7.4145002365112305,34.1263008117675800,92.2723464965820300,574.4736938476562000,7.4058232307434080,47.1281204223632800,52,105,88,81,78,15159,2147745280,2147422217,2148004516,2147872512,2147629494,2147078427,2148241252,2147198976,1166,4,13,41244
1355175366,5808,427.4200134277344000,7.8835000991821290,34.1222991943359400,107.3050003051757800,559.5612792968750000,7.8830699920654300,45.2945289611816400,51,106,89,79,76,15159,2147744018,2147423469,2148001051,2147875648,2147627867,2147079515,2148234075,2147202276,1215,3,13,35330
1355175476,5808,416.3299865722656000,8.0508003234863280,34.1216011047363300,118.4940032958984400,554.7598876953125000,8.0363283157348630,44.1067008972168000,50,105,85,80,76,15160,2147742363,2147422262,2148006171,2147872905,2147628534,2147089974,2148241664,2147204150,183,4,13,3509
1355175586,5807,404.7099914550781000,8.2143001556396480,34.1172981262207000,123.9499969482421900,547.7994995117188000,8.2581520080566400,43.4720001220703100,50,105,89,79,76,15160,2147741403,2147420800,2148004260,2147873179,2147624192,2147082221,2148236690,2147199241,3554,4,13,46762
1355175687,5804,393.7200012207031000,8.4650001525878900,34.1165008544921900,133.5164031982422000,541.8618774414062000,8.4470691680908200,42.5000801086425800,50,107,86,81,76,15158,2147740973,2147419611,2148004114,2147874898,2147624978,2147087478,2148233270,2147200841,3385,4,13,31869
1355175786,5807,382.7799987792969000,8.6950998306274410,34.1217994689941400,140.6829986572265600,534.2780151367188000,8.6879539489746100,41.7441596984863300,50,105,90,81,75,15158,2147738569,2147423314,2148002249,2147874688,2147623744,2147089078,2148235264,2147200320,2762,3,13,47435
1355175885,5807,372.2399902343750000,8.9504995346069340,34.1200981140136700,148.4411010742187500,525.2963256835938000,8.9726524353027340,40.9413414001464840,50,105,88,80,75,15160,2147737746,2147420653,2148004315,2147874093,2147621723,2147096091,2148227401,2147204160,2380,4,13,8932
1355176014,5807,360.3500061035156000,9.3404998779296880,34.1181983947753900,160.6809997558593800,514.2938232421875000,9.3205728530883790,39.7807807922363300,49,106,89,80,75,15160,2147738166,2147422546,2148004205,2147875913,2147619209,2147090880,2148229138,2147201051,2572,4,13,39404
1355176157,5808,349.2099914550781000,9.5417995452880860,34.1216011047363300,166.7731933593750000,507.8038940429687500,9.5253801345825200,39.2085685729980500,50,106,89,80,72,15159,2147734445,2147418761,2148005805,2147874742,2147619730,2147099556,2148230006,2147201828,2857,4,13,15588
1355176291,5811,338.7600097656250000,9.6631002426147460,34.1185989379882800,171.6882934570312500,503.4729003906250000,9.6618881225585940,38.7751083374023440,50,107,87,80,72,15160,2147733650,2147421952,2148006262,2147877787,2147619565,2147095954,2148227355,2147203492,2190,4,13,48852
1355176445,5809,327.6300048828125000,9.9033002853393550,34.1204986572265600,176.5968933105468800,495.4388122558594000,9.9147615432739260,38.2887001037597660,50,105,89,81,72,15159,2147733046,2147424850,2148005010,2147869485,2147620041,2147093494,2148227273,2147202541,2057,4,13,9499
1355176631,5809,315.3800048828125000,10.4885997772216800,34.1220016479492200,186.6058044433593800,477.7875061035156000,10.4688100814819340,37.3079681396484400,48,106,87,80,70,15158,2147733092,2147425627,2148009645,2147873042,2147613293,2147102381,2148227401,2147202770,925,4,14,15938
1355176774,5808,304.6900024414062500,11.0329999923706050,34.1428985595703100,195.4185028076172000,460.2196044921875000,11.0182695388793950,36.4450912475585940,49,106,87,80,72,15155,2147730971,2147425051,2148014738,2147874825,2147611456,2147104192,2148227931,2147206308,175,4,13,38501
1355176940,5809,290.8399963378906000,11.5936002731323240,34.1627006530761700,197.4682006835937500,441.3627014160156000,11.6059999465942380,36.0090217590332000,49,104,87,79,70,15155,2147727881,2147427008,2148022098,2147872109,2147607963,2147110966,2148225874,2147206244,689,5,13,48968
1355177049,5807,280.1400146484375000,12.4819002151489260,34.1978988647460940,201.6902008056640600,413.2215881347656000,12.4795598983764650,35.2995796203613300,47,105,87,81,69,15151,2147728310,2147430582,2148028297,2147874048,2147604909,2147113892,2148224256,2147205659,1536,4,13,42604
1355177158,5810,268.8500061035156000,12.7990999221801760,34.2159996032714840,203.9989929199218800,402.0071105957031000,12.8266000747680660,34.9839210510253900,49,104,89,81,69,15156,2147725403,2147430747,2148044379,2147873170,2147603373,2147122505,2148231542,2147207369,2640,3,14,62409
1355177259,5808,258.4599914550781000,13.3071002960205080,34.2492980957031250,205.4613037109375000,386.7860107421875000,13.2967500686645500,34.6602096557617200,49,104,91,79,69,15154,2147725138,2147437869,2148060160,2147872256,2147602432,2147126573,2148231250,2147209060,3114,4,13,57692
1355177379,5809,246.6300048828125000,13.7875995635986330,34.2821006774902340,206.7444000244140600,369.3229064941406000,13.8350000381469730,34.3169593811035160,50,105,86,79,69,15154,2147721764,2147446537,2148090240,2147870820,2147597961,2147142473,2148244022,2147215113,2066,3,14,31576
1355177488,5810,236.7899932861328000,14.3878002166748050,34.3417015075683600,207.5950012207031200,351.4641113281250000,14.3843097686767580,33.9964981079101560,49,104,90,80,67,15154,2147723190,2147463286,2148128777,2147872859,2147595648,2147152896,2148264356,2147215213,1133,3,14,27763
1355177622,5808,225.9900054931640600,15.1224002838134770,34.4115982055664060,207.7935028076172000,328.1828918457031000,15.0989198684692380,33.6373596191406250,49,103,88,80,67,15150,2147721453,2147472667,2148156059,2147874304,2147590454,2147166784,2148266724,2147212699,70,3,13,49882
1355177775,5812,214.3200073242187500,15.8641996383667000,34.5007019042968750,208.9033966064453000,303.1485900878906000,15.8658304214477540,33.2063407897949200,49,102,88,80,67,15150,2147722139,2147465892,2148106066,2147874788,2147587099,2147163090,2148242770,2147214701,3487,4,15,42909
1355177920,5806,201.6499938964843800,16.8680992126464840,34.6227989196777340,210.0467987060547000,270.5044860839844000,16.8641204833984380,32.6714591979980500,50,101,87,79,66,15150,2147733796,2147592676,2148431387,2147873142,2147587172,2147242413,2148392804,2147228699,1305,3,14,26264
1355177974,5810,195.8699951171875000,16.9874000549316400,34.6412010192871100,210.6242980957031200,266.4218139648437500,16.9888801574707030,32.5810890197753900,49,102,90,80,66,15146,2147737225,2147621348,2148491090,2147873755,2147589915,2147262966,2148421494,2147229942,1726,3,14,48685
1355178029,5809,189.9900054931640600,17.0977001190185550,34.6572990417480500,210.8153991699218800,262.2934875488281000,17.1150093078613280,32.5121192932128900,50,104,90,81,67,15144,2147723629,2147501869,2148158372,2147871067,2147582235,2147194386,2148258130,2147217819,2139,2,15,33933
1355178084,5809,184.3099975585937500,17.3941993713378900,34.6921997070312500,210.6634979248047000,253.3515014648437500,17.3881702423095700,32.3940010070800800,50,103,86,79,66,15147,2147755273,2147722185,2148690148,2147874093,2147592768,2147317604,2148518326,2147234230,2173,3,14,11962
1355178138,5807,178.9199981689453000,17.5991992950439450,34.7260017395019500,211.4331970214843800,245.7254943847656200,17.6210994720459000,32.2441406250000000,50,103,86,81,66,15147,2147737974,2147576521,2148310710,2147873197,2147586642,2147237513,2148330322,2147219200,2156,3,15,48620
1355178212,5810,172.2100067138672000,18.2458000183105470,34.8101997375488300,211.6461029052734400,226.0671997070312500,18.2214393615722660,31.9578895568847660,50,106,87,81,64,15144,2147756233,2147671716,2148508525,2147874486,2147591232,2147301833,2148435008,2147228416,2216,4,14,5932
1355178266,5810,167.9799957275390600,18.7035999298095700,34.8769989013671900,211.7337951660156200,210.7205047607422000,18.6901206970214840,31.7412204742431640,52,103,86,80,65,15142,2147767277,2147704969,2148563501,2147874541,2147597558,2147320859,2148452708,2147229942,2012,3,14,7024
1355178321,5803,163.9600067138672000,19.0923004150390620,34.9258995056152340,212.5868072509765600,197.3957061767578000,19.0971508026123050,31.5123100280761720,53,103,88,80,64,15139,2147768027,2147684022,2148505170,2147875657,2147591862,2147312640,2148419940,2147230902,1563,2,15,55948
1355178376,5811,160.2799987792968800,19.3677997589111330,34.9659996032714840,213.2469024658203000,186.6459960937500000,19.4256095886230470,31.3304996490478500,53,102,87,80,65,15141,2147791149,2147778816,2148694866,2147872868,2147601664,2147375570,2148525750,2147237046,1238,2,15,26001
1355178441,5806,156.4799957275390600,19.9727993011474600,35.0430984497070300,214.2702026367187500,170.0133972167968800,19.9340991973876950,31.0510902404785160,54,103,87,82,64,15135,2147815670,2147865974,2148852553,2147875757,2147611209,2147422573,2148583634,2147242477,1522,2,14,11920
1355178530,5808,152.9499969482422000,20.0508003234863280,35.0578994750976560,217.1687927246093800,166.1641998291015600,20.0518302917480470,30.8464107513427730,56,105,89,80,63,15134,2147796544,2147763254,2148630893,2147874294,2147600054,2147374646,2148479515,2147237942,788,2,15,11902
1355178661,5807,148.9299926757812500,20.1567001342773440,35.0747985839843750,219.8280944824218800,162.6631927490234400,20.1589393615722660,30.6615791320800780,55,104,88,79,64,15134,2147938230,2148227318,2149547081,2147876077,2147660169,2147648448,2148912877,2147266889,3125,2,15,9899
1355178770,5806,144.6000061035156200,20.3362007141113280,35.1054992675781250,221.7729949951172000,157.0572967529297000,20.3304805755615230,30.4874000549316400,55,104,88,81,62,15133,2147870610,2147936640,2148909814,2147878610,2147634349,2147488795,2148620123,2147251565,2505,2,15,42055
1355178856,5807,140.1000061035156200,20.8104991912841800,35.1267013549804700,222.3166961669922000,142.4821014404297000,20.7767696380615230,30.2674293518066400,59,105,89,82,62,15123,2147847945,2147846153,2148726811,2147874752,2147625773,2147435446,2148536210,2147237906,2817,2,15,14899
1355178932,5807,136.2799987792968800,20.9041996002197270,35.1178016662597660,224.2700958251953000,138.4122009277343800,20.9014606475830080,30.1158599853515620,61,104,88,81,62,15122,2147898075,2147937280,2148878537,2147879643,2147642715,2147494189,2148606308,2147248649,1632,2,16,20318
1355179008,5808,132.4900054931640600,20.9571990966796880,35.1258010864257800,225.6197052001953000,136.6663970947265600,20.9549694061279300,30.0258598327636720,58,105,87,81,62,15122,2148007853,2148175360,2149260306,2147880493,2147690843,2147636251,2148788772,2147260662,537,2,15,12528
1355179084,5807,128.6999969482422000,20.9822006225585940,35.1318016052246100,226.4008026123047000,135.9644012451172000,20.9764900207519530,29.9779396057128900,60,104,89,80,62,15121,2148099309,2148339977,2149500781,2147886162,2147732653,2147734445,2148907986,2147272201,450,2,15,51916
1355179174,5806,124.5500030517578100,21.0715999603271500,35.1489982604980500,226.4725036621093800,132.7962036132812500,21.0736007690429700,29.9330501556396500,61,106,89,79,62,15116,2148857755,2150024603,2152500013,2147912640,2148063597,2148722294,2150343917,2147378852,849,2,15,21283
1355179283,5807,121.1900024414062500,21.3071994781494140,35.1389999389648440,227.4546051025390600,125.4128036499023400,21.3000297546386720,29.7887706756591800,63,106,88,82,61,15114,2148459364,2148919186,2150399497,2147893613,2147890907,2148089782,2149345993,2147305947,537,2,15,23132
1355179481,5806,116.7500000000000000,21.6096992492675780,35.1468009948730500,230.0045928955078000,115.1729965209961000,21.6143093109130860,29.5323009490966800,73,111,88,81,62,15100,2149522450,2150780736,2153475712,2147931785,2148353316,2149157449,2150816466,2147418340,2001,3,16,36643
1355179568,5809,112.9199981689453100,21.9246006011962900,35.1458015441894500,231.1356964111328000,106.6817016601562500,21.8751392364501950,29.3688201904296880,83,112,89,83,62,15092,2150135149,2151629028,2154725860,2147953691,2148603940,2149604470,2151392722,2147466157,3528,2,15,34145
1355179666,5808,108.5899963378906200,22.0576992034912100,35.1500015258789060,232.6705017089843800,100.5618972778320300,22.0632801055908200,29.2175006866455080,90,113,91,83,63,15085,2150738349,2152410843,2155783296,2147984146,2148860781,2149982180,2151782308,2147503204,1091,2,15,1244
1355179755,5808,104.8000030517578100,22.2313995361328120,35.1525001525878900,233.8027954101562500,95.5164337158203100,22.2184791564941400,29.0998306274414060,99,115,88,82,61,15068,2149830418,2150562989,2152509814,2147941888,2148475785,2148956260,2150311515,2147390025,252,2,15,35492
1355179864,5811,100.9199981689453100,22.4221992492675780,35.1539001464843750,234.0321044921875000,91.4612579345703100,22.3432807922363280,29.0373592376709000,103,118,93,82,63,15060,2152650203,2154766610,2158909248,2148070720,2149629888,2151089755,2153083849,2147624283,622,2,15,8914
1355179918,5811,99.2300033569336000,22.4416007995605470,35.1561012268066400,234.5068969726562500,88.6652374267578100,22.4293594360351560,28.9793891906738280,106,119,88,82,61,15059,2153277997,2155551067,2159970605,2148098413,2149885010,2151447332,2153485604,2147665344,862,2,15,55423
1355179973,5809,97.5699996948242200,22.6949005126953120,35.1548004150390600,234.9091033935547000,81.4032363891601600,22.6530799865722660,28.8686599731445300,113,117,91,82,61,15050,2153816676,2156188443,2160746514,2148135003,2150099766,2151717046,2153772800,2147699209,750,2,16,1728
1355180028,5806,96.3399963378906200,22.7523994445800780,35.1557998657226560,236.0075988769531200,78.7337036132812500,22.7353591918945300,28.7839794158935550,117,117,90,81,61,15046,2153567094,2155713005,2159904722,2148119222,2149992027,2151441801,2153378761,2147668132,869,2,16,20575
1355180128,5812,93.6699981689453100,22.8057003021240230,35.1549987792968750,236.6410980224609400,76.6818695068359400,22.7986297607421880,28.7287998199462900,124,118,88,83,60,15036,2154947693,2157505161,2162296493,2148197010,2150549961,2152234715,2154323474,2147760694,1279,1,16,29974
1355180183,5808,91.4100036621093800,22.8598995208740230,35.1475982666015600,236.7207031250000000,74.1909179687500000,22.8754596710205080,28.6937198638916000,129,122,91,83,60,15024,2155477065,2157975789,2162694939,2148225846,2150737782,2152358189,2154386953,2147776182,1029,2,16,9197
1355180238,5806,89.3799972534179700,23.1270008087158200,35.1515998840332000,236.3238983154297000,66.5825500488281200,23.1102790832519530,28.6162796020507800,136,121,89,83,61,15016,2156058020,2158511872,2163155145,2148264146,2150957869,2152522578,2154518692,2147803675,781,1,16,23801
1355180293,5804,88.0899963378906200,23.2374992370605470,35.1514015197753900,237.4015960693359400,63.1147117614746100,23.2173900604248050,28.5231895446777340,139,126,90,84,60,15004,2155547922,2157596480,2161654628,2148234633,2150717248,2152002057,2153839058,2147747648,214,2,16,55959
1355180438,5807,86.3899993896484400,23.3076000213623050,35.1474990844726560,238.1894073486328000,60.3232116699218750,23.3036403656005860,28.4523506164550780,143,120,91,83,60,14994,2155150701,2156575021,2159416786,2148182902,2150500397,2151278939,2152710034,2147660050,2414,2,16,24266
1355180526,5808,83.9400024414062500,23.3896999359130860,35.1497001647949200,238.7933044433593800,57.7560386657714840,23.3829994201660160,28.3926792144775400,152,124,92,84,61,14972,2162046473,2165590372,2171155657,2148580955,2153263579,2155073197,2157195968,2148123958,1474,2,15,65382
1355180581,5806,82.2200012207031200,23.5911006927490230,35.1475982666015600,238.4703063964843800,51.6145210266113300,23.5729598999023440,28.3305492401123050,156,123,92,83,61,14961,2163952420,2167674550,2173248466,2148651958,2153936338,2155764498,2157855122,2148204260,1320,2,15,21971
1355180669,5811,80.7099990844726600,24.2422008514404300,35.1660995483398440,237.3833007812500000,31.8364200592041000,24.1859207153320300,28.1336402893066400,147,121,91,82,61,14981,2163244379,2166397787,2171024502,2148617673,2153773632,2155231689,2157014784,2148139190,1946,1,16,39577
1355180934,5809,78.4599990844726600,24.6420001983642580,35.1888999938964840,236.5386047363281200,18.8734092712402340,24.5887298583984380,28.0112800598144530,102,118,89,83,59,15008,2163595922,2166252982,2169858441,2148589266,2154619456,2155805760,2157095003,2148151213,1886,2,16,32496
1355181056,5810,75.3700027465820300,24.8885002136230470,35.2108001708984400,235.6898956298828000,9.9750099182128900,24.8657608032226560,27.9399108886718750,88,119,93,82,57,15007,2165215579,2167672274,2170964224,2148732955,2155878336,2157014774,2157988077,2148257362,2738,1,16,13149
1355181111,5806,72.9700012207031200,24.9722995758056640,35.2193984985351560,235.3029937744140600,6.8745021820068360,24.9623908996582030,27.9191207885742200,82,121,91,84,57,15004,2167272347,2169947190,2173310582,2148912987,2157352676,2158558226,2159299757,2148404809,2702,2,16,34538
1355181166,5809,70.5500030517578100,25.0230007171630860,35.2252998352050800,235.2644958496093800,5.1854791641235350,25.0150508880615230,27.8999500274658200,82,120,90,84,58,15010,2169230089,2172036763,2175259154,2149118765,2159154633,2160411593,2160780598,2148586322,2306,1,16,46064
1355181221,5809,68.3799972534179700,25.0659999847412100,35.2290992736816400,235.0818939208984400,3.7267858982086180,25.0605506896972660,27.8903598785400400,78,122,91,85,57,15009,2169504356,2172120685,2174880996,2149185261,2159880960,2160910454,2160876772,2148603145,2008,1,16,24818
1355181276,5818,66.4499969482421900,25.1910991668701170,35.2406997680664060,234.7079010009765600,0.0077694649808109,25.1765995025634770,27.8615608215332030,72,123,92,87,57,15002,2173374180,2176685668,2179937005,2149545792,2162860580,2164191744,2163776813,2148916681,1792,2,16,2614
1355181331,5806,65.0199966430664000,25.2369003295898440,35.2461013793945300,234.8027954101562500,-1.5616630315780640,25.2255897521972660,27.8377494812011720,70,124,90,84,55,15004,2173876955,2177141796,2180321755,2149674331,2163905380,2165138523,2164334436,2148983131,1358,1,16,32394
1355181409,5808,62.8100013732910160,25.2462005615234380,35.2482986450195300,234.8740997314453000,-2.0722839832305910,25.2415409088134770,27.8282604217529300,66,122,93,84,57,15005,2175512576,2178614674,2181584786,2149903049,2166488018,2167566774,2165936201,2149150948,799,1,15,57531
1355181464,5806,60.6199989318847660,25.2511005401611330,35.2496986389160160,234.9299011230468800,-2.2343599796295166,25.2465991973876950,27.8237400054931640,66,122,91,85,59,14998,2179649883,2183232493,2186587419,2150481709,2170778953,2172099200,2169725357,2149568685,619,2,16,19703
1355181519,5810,58.3400001525878900,25.2590007781982420,35.2492980957031250,235.1457977294922000,-2.4442338943481445,25.2531509399414060,27.8112907409667970,66,123,90,85,56,14997,2184675428,2189183332,2193296603,2151271314,2175337673,2176782555,2173384475,2150020041,733,2,16,58573
1355181574,5807,56.1699981689453100,25.2637004852294920,35.2500991821289060,235.1371002197265600,-2.6667950153350830,25.2601108551025400,27.8089694976806640,65,123,92,85,54,14999,2188637732,2193460205,2197958354,2152048201,2179695881,2181300690,2177053284,2150455881,340,2,16,59532
1355181629,5807,54.2999992370605500,25.2830009460449220,35.2490997314453100,235.1009063720703000,-3.3832581043243410,25.2824802398681640,27.8016700744628900,58,122,94,85,58,14995,2184606646,2188287085,2191511460,2151581632,2177586843,2178367149,2173729380,2150102162,533,1,16,56874
1355181684,5806,52.5499992370605500,25.2875995635986330,35.2492980957031250,235.0874023437500000,-3.4147291183471680,25.2834701538085940,27.8019294738769530,60,120,92,85,57,14994,2183634898,2186857133,2189431588,2151727360,2178171794,2178561874,2173446857,2150099739,1505,1,16,3022
1355181762,5815,49.1100006103515600,25.2847003936767580,35.2495002746582000,235.2541046142578000,-3.2571759223937990,25.2785396575927730,27.7963600158691400,60,122,92,85,57,14999,2187687122,2190967451,2193632768,2152825005,2183333348,2183431131,2176977627,2150614537,1824,1,16,21279
1355181817,5808,45.9900016784668000,25.2786998748779300,35.2503013610839840,235.2292938232422000,-3.1859719753265380,25.2763195037841800,27.7983798980712900,60,122,92,84,55,14997,2190014720,2193174381,2195828507,2153948617,2186242221,2185926747,2178449252,2150957888,1613,1,16,26456
1355181872,5806,43.0800018310546900,25.2796993255615230,35.2495002746582000,235.3934020996093800,-3.1829240322113037,25.2762298583984380,27.7910099029541000,60,120,92,83,58,14992,2196139090,2199748196,2202793206,2155770422,2192787254,2192480868,2183548434,2151765092,1652,2,16,28239
1355181927,5803,40.2000007629394500,25.2801990509033200,35.2490005493164060,235.5316925048828000,-3.1791870594024660,25.2761096954345700,27.7847995758056640,59,122,91,86,57,14992,2196983588,2199936054,2202455259,2156759497,2194340434,2193360466,2183715812,2152003821,1654,1,16,18065
1355181982,5803,37.0200004577636700,25.2789993286132800,35.2495002746582000,235.5274963378906200,-3.1684670448303223,25.2757701873779300,27.7849998474121100,59,121,93,85,56,14996,2200628608,2203351616,2205713197,2158598555,2198842075,2197362834,2186449380,2152600978,1705,1,16,40674
1355182037,5811,33.7000007629394500,25.2805004119873050,35.2494010925293000,235.5214996337890600,-3.2225580215454100,25.2774600982666000,27.7846202850341800,60,123,92,85,56,14995,2206614262,2209250843,2211696941,2161704676,2205144914,2203129545,2190558921,2153678592,1234,1,16,9452
1355182094,5808,29.7600002288818360,25.2793998718261720,35.2492980957031250,235.6614990234375000,-3.1918730735778810,25.2765007019042970,27.7787494659423830,60,122,93,86,58,14994,2214998427,2217772498,2220635529,2166416868,2214298797,2211655323,2196807954,2155248036,953,2,16,30841
1355182149,5806,25.7199993133544920,25.2747993469238280,35.2495994567871100,235.6450042724609400,-3.1189980506896973,25.2742290496826170,27.7804107666015620,60,121,92,85,57,14997,2223844818,2226428644,2229456310,2172330203,2223562980,2220072100,2202895478,2157093558,643,1,16,5691
1355182204,5810,21.9500007629394530,25.2754993438720700,35.2489013671875000,235.6230926513672000,-3.1703350543975830,25.2758293151855470,27.7807502746582030,61,122,92,84,59,14996,2233174363,2235651702,2238976713,2181301824,2234848502,2230409654,2210654930,2159829787,504,2,17,39036
